Location: Eschentzwiller
(47.7125°N, 7.3981°E)
Time: 04:18:09
(UTC+00:00)

Cosmos 1697 Rocket - Pass Details

Date: 27 October 2020
Orbit: 831 x 845 km, 71.0° (Epoch: 01 December)

Event Time Altitude Azimuth Distance (km) Brightness Sun altitude
Rises 17:38:37 0° 177° (S) 3,362 5.8 -13.7°
Reaches altitude 10° 17:41:14 10° 168° (SSE) 2,434 5.0 -14.2°
Maximum altitude 17:46:10 33° 105° (ESE) 1,368 3.3 -15.0°
Enters shadow 17:49:37 18° 53° (NE) 1,972 4.1 -15.6°
